Wind_Speed
16 16 14 13 13 13 13 13 14 14 14 13 13 13 12 13 12 11 12 12 12 13 12 13 10 8 7 6 7 8 12 16 13 10 8 7 9 9 12 12 9 11 11 17 19
18 17 16 15 13 14 13 13 14 14 13 14 13 14 15 14 14 13 12 13 12 13 13 10 6 7 4 5 6 7 11 13 6 5 8 11 11 13 11 10 11 10 12 19 16
20 19 18 16 16 16 16 15 15 16 15 15 15 15 15 16 14 14 14 14 12 10 11 11 11 9 8 10 9 5 11 11 9 9 12 12 11 12 11 11 12 17 18 18 17
23 21 20 19 17 18 19 17 16 16 17 15 17 17 17 16 3 15 8 8 10 13 14 11 10 9 9 11 10 9 12 11 9 14 12 11 14 13 11 11 14 17 19 19 19
27 25 22 20 19 19 19 19 18 19 19 19 18 18 18 18 10 17 19 18 18 15 13 12 12 10 11 11 12 11 11 13 12 15 14 13 12 15 12 15 14 20 19 20 22
30 31 26 24 24 22 23 23 22 21 19 22 21 20 18 18 24 21 20 19 17 14 13 11 11 13 10 10 10 13 13 12 12 10 13 14 13 16 12 16 16 19 21 21 20
32 32 30 28 25 26 28 23 21 23 22 22 24 23 22 16 25 24 21 19 18 17 14 14 13 11 10 9 17 15 13 12 13 10 9 13 14 9 8 20 20 20 19 18 15
34 34 32 29 28 28 27 28 25 23 23 22 26 22 25 29 24 23 22 20 19 17 15 15 14 15 14 17 15 11 12 13 12 7 11 10 11 9 15 17 20 19 17 16 17
37 33 35 29 31 30 32 32 29 26 24 24 26 25 20 30 25 24 20 21 20 20 20 17 14 12 13 11 11 14 15 9 6 9 7 8 14 13 19 20 18 14 15 17 18
42 36 38 41 29 30 31 32 31 27 27 27 27 26 22 23 19 12 12 13 13 13 12 12 10 9 9 13 16 10 8 7 10 9 15 16 17 16 19 16 11 11 12 16 16
51 48 44 36 35 35 29 32 29 31 33 29 21 23 20 22 22 18 18 14 10 10 9 9 10 13 11 13 10 8 11 15 15 14 15 12 20 19 15 6 7 8 14 14 19
48 50 51 42 41 41 40 30 32 28 32 31 31 33 31 30 24 21 19 13 12 12 12 12 14 14 17 16 8 8 12 15 13 7 17 16 22 14 5 3 3 11 16 20 25
49 48 51 51 43 47 38 38 36 36 40 41 30 36 33 32 28 18 23 16 13 13 17 16 4 19 18 10 9 10 11 11 12 18 21 12 10 8 4 2 6 14 20 22 25
47 46 46 50 50 49 47 42 43 36 29 35 30 40 35 36 32 24 26 18 18 18 17 18 21 19 14 12 11 12 13 11 13 13 13 11 8 11 8 7 11 18 22 28 34
43 44 47 42 50 53 45 41 35 37 5 7 19 19 22 30 16 22 25 22 18 15 19 15 16 15 15 12 13 5 14 13 14 16 16 16 11 10 7 6 14 18 33 38 35
40 41 41 43 47 49 52 43 33 17 9 16 12 19 26 28 17 17 24 20 16 19 18 16 13 13 12 17 14 13 10 12 13 10 11 16 6 7 6 7 16 24 39 38 37
41 41 40 39 42 46 45 38 26 13 15 17 15 21 28 27 24 24 25 27 22 20 19 17 15 14 17 9 8 8 7 9 11 9 7 6 6 14 5 8 17 27 40 39 38
40 41 42 39 39 42 37 39 19 22 25 11 13 22 30 29 27 24 25 28 30 21 14 20 12 20 16 14 8 9 8 7 5 8 9 12 8 3 4 8 17 28 41 41 40
38 38 44 43 39 39 38 38 26 28 24 20 18 26 29 28 15 26 30 31 28 26 19 21 13 17 11 12 11 8 7 6 3 13 6 10 9 9 3 11 20 34 43 43 42
35 29 43 44 39 36 40 43 33 34 23 23 32 26 31 31 24 28 27 27 29 27 21 14 9 15 12 10 11 8 10 3 6 4 6 7 10 4 9 17 26 37 40 43 41
30 36 44 44 33 38 47 35 38 43 28 28 33 23 30 29 31 34 20 14 30 25 23 18 13 14 13 17 13 11 12 8 6 6 4 5 1 1 10 14 23 33 38 40 41
33 37 47 44 43 45 46 49 44 33 32 33 29 25 30 32 35 29 28 25 26 24 25 20 15 19 19 10 12 14 12 13 6 8 10 10 18 3 6 10 26 36 37 37 39
40 39 46 40 45 52 48 50 43 28 34 33 37 34 26 32 31 29 28 23 25 26 22 24 13 18 10 7 12 16 17 16 13 9 13 10 8 6 19 27 34 34 35 37 39
47 42 40 45 49 48 42 48 43 38 31 30 31 27 24 30 32 31 26 25 24 23 25 25 15 15 14 4 13 17 21 20 17 10 14 18 20 18 23 33 32 33 35 35 38
62 52 49 58 56 55 50 44 39 33 32 31 29 32 34 30 30 29 29 25 24 27 24 15 11 16 8 7 8 11 16 22 25 20 15 15 18 21 27 33 33 34 33 33 35
70 66 54 53 55 59 51 51 44 39 41 40 29 32 36 33 36 31 30 32 26 29 21 18 8 11 12 11 10 11 15 19 22 21 22 20 21 20 26 32 33 31 29 30 33
80 68 49 58 47 57 60 57 52 39 32 37 37 34 35 31 29 24 24 24 27 26 28 22 12 12 13 10 9 13 25 25 25 21 16 20 20 21 23 22 27 28 25 30 31
Wind_Direction
280 283 287 292 296 299 304 305 302 300 299 298 298 295 292 293 290 287 283 284 289 291 294 298 300 302 293 243 253 263 255 262 267 251 249 275 301 307 296 299 277 287 284 282 289
268 271 276 282 285 289 297 301 301 299 299 300 297 295 295 294 294 290 288 282 282 284 287 291 284 293 250 249 261 236 264 274 265 239 259 278 300 303 303 295 295 272 287 297 293
265 266 267 270 277 280 285 289 294 296 297 298 298 295 291 290 299 267 283 279 280 285 285 276 270 275 255 254 255 258 244 282 283 260 280 289 303 284 304 298 287 272 293 298 299
260 260 262 267 273 279 282 282 290 291 293 296 295 291 287 284 290 271 273 266 272 290 292 287 278 267 268 252 249 260 256 254 257 277 283 280 284 293 293 287 297 299 301 306 311
253 255 256 262 268 274 281 277 279 284 290 293 291 287 283 277 270 271 272 271 276 283 283 279 269 258 256 255 248 258 254 267 269 282 281 285 290 294 289 292 280 302 301 302 300
248 250 252 257 265 268 271 276 278 281 285 290 290 287 278 275 260 274 273 272 276 278 277 272 252 254 240 244 243 244 257 264 268 269 292 297 305 299 290 285 302 304 304 304 306
256 250 245 250 258 268 270 268 269 276 281 284 284 282 280 269 269 269 269 270 272 271 272 268 260 248 247 260 255 260 272 275 262 256 285 301 331 259 263 286 303 312 309 310 314
258 253 253 247 254 259 263 264 264 265 273 278 281 285 281 274 274 271 270 270 268 265 264 268 258 245 247 245 272 268 263 270 204 243 280 308 298 295 296 308 309 309 316 316 313
258 251 251 257 251 259 262 262 263 264 262 268 276 280 283 282 273 266 262 266 271 269 267 263 252 241 254 254 260 251 258 230 271 263 279 286 286 295 299 307 305 314 313 318 318
248 254 261 254 248 257 259 261 263 263 260 264 269 275 277 273 269 270 251 247 259 268 267 252 244 237 253 233 250 297 229 254 274 271 287 295 290 291 304 300 306 319 328 326 319
244 247 249 245 250 254 256 260 264 274 263 259 266 255 262 266 276 261 257 249 247 250 228 240 226 233 255 214 241 270 276 276 280 283 302 296 294 301 298 280 302 328 322 320 318
240 241 240 242 250 253 249 255 248 239 252 256 253 260 260 267 268 250 243 240 232 223 221 231 241 226 218 235 246 263 269 280 285 292 303 305 296 300 207 297 330 325 330 326 321
248 240 238 244 245 246 246 246 261 248 255 253 253 255 258 255 255 231 233 234 227 223 228 227 252 222 240 238 239 255 258 269 283 302 310 285 294 189 225 218 319 330 327 328 305
251 247 242 239 238 236 242 246 252 264 252 262 244 254 234 247 247 222 238 218 221 224 230 238 238 233 234 225 232 253 238 275 295 306 296 307 283 256 221 245 315 331 335 314 321
249 249 244 240 239 237 241 242 251 261 254 250 216 237 210 214 230 214 208 210 219 215 206 241 217 218 218 221 223 234 252 282 286 283 287 283 235 151 206 265 320 334 335 333 326
249 249 247 239 237 239 243 238 250 235 230 209 221 212 191 198 198 193 198 207 215 220 222 244 207 207 221 227 229 243 278 279 272 265 255 246 218 293 279 316 319 319 333 334 329
245 248 246 243 238 238 240 241 244 197 221 223 201 201 199 194 202 192 189 195 190 188 205 217 216 211 208 204 240 235 261 255 226 198 254 150 263 257 269 325 343 329 334 335 331
245 244 247 246 238 236 238 245 228 228 216 207 190 206 197 189 201 199 196 207 209 211 208 204 201 210 209 202 226 207 228 274 267 285 305 296 263 167 226 325 334 327 335 334 334
241 241 242 242 239 230 235 223 234 232 224 198 187 195 197 196 191 203 208 216 218 208 209 203 205 179 186 202 188 209 225 210 263 257 255 247 240 268 236 323 337 329 333 334 332
238 234 237 239 237 233 234 225 236 234 228 204 205 204 197 197 196 199 201 218 213 210 206 200 178 202 202 190 209 189 203 204 204 252 260 262 282 249 331 332 328 326 334 335 332
224 230 234 231 231 224 222 230 239 229 225 211 210 218 212 202 205 206 207 210 205 201 201 201 200 188 194 203 208 191 202 211 225 235 281 293 135 293 330 334 328 332 335 336 336
224 226 233 228 217 221 226 230 229 234 223 224 213 205 208 203 211 216 213 215 198 195 194 195 200 188 212 191 202 214 219 206 223 190 231 285 294 228 329 336 326 332 336 340 339
229 224 233 234 211 222 227 230 230 221 217 213 224 217 208 209 204 215 217 212 196 190 193 195 200 169 194 238 213 210 212 213 225 248 252 266 253 248 319 311 319 329 336 343 343
226 215 217 218 231 223 218 226 222 222 216 210 213 207 203 201 202 198 208 203 188 182 202 182 184 210 226 186 182 203 207 215 216 221 245 246 279 289 304 302 314 328 336 342 343
214 219 215 204 221 220 218 218 214 204 199 199 203 204 193 197 194 200 196 180 180 195 199 190 210 209 213 182 182 196 206 215 222 233 253 266 290 297 293 301 313 325 331 339 342
215 215 214 221 225 216 212 213 213 207 205 198 203 192 189 196 197 197 189 179 177 189 193 200 205 203 221 223 217 219 221 222 230 239 252 266 276 279 290 297 305 319 330 340 343
221 218 213 215 216 209 209 211 212 206 212 216 197 195 194 202 194 199 212 213 218 208 200 201 197 198 230 218 224 246 236 229 235 241 246 251 260 280 296 304 308 323 334 340 341
Height
3143 3143 3141 3141 3140 3140 3139 3138 3138 3137 3136 3136 3136 3135 3134 3133 3133 3133 3134 3133 3132 3131 3131 3132 3131 3132 3133 3136 3135 3138 3140 3137 3136 3136 3138 3135 3135 3136 3133 3132 3135 3133 3130 3129 3129
3138 3139 3139 3138 3137 3137 3136 3135 3135 3134 3134 3134 3133 3133 3132 3131 3131 3130 3131 3130 3130 3130 3130 3130 3132 3131 3135 3135 3135 3136 3137 3136 3131 3132 3133 3131 3132 3132 3132 3132 3132 3131 3127 3124 3125
3135 3135 3136 3135 3135 3134 3133 3132 3132 3132 3131 3131 3131 3131 3130 3129 3129 3128 3127 3127 3128 3128 3127 3128 3129 3131 3134 3134 3134 3135 3134 3132 3132 3129 3129 3129 3130 3128 3128 3130 3129 3125 3123 3121 3122
3131 3131 3132 3132 3131 3131 3131 3130 3129 3129 3129 3128 3128 3128 3128 3127 3132 3125 3125 3125 3126 3126 3126 3126 3127 3130 3132 3132 3131 3129 3130 3128 3130 3125 3126 3126 3124 3125 3125 3126 3124 3121 3119 3118 3117
3124 3126 3127 3128 3127 3127 3127 3127 3127 3127 3127 3126 3125 3124 3125 3125 3126 3123 3123 3122 3122 3123 3123 3123 3125 3128 3129 3129 3127 3126 3128 3124 3123 3123 3122 3122 3122 3121 3121 3120 3119 3117 3116 3115 3113
3118 3120 3122 3123 3124 3122 3122 3123 3124 3124 3123 3124 3122 3121 3121 3122 3118 3119 3119 3119 3119 3120 3121 3120 3122 3122 3123 3125 3124 3121 3122 3122 3122 3121 3118 3118 3119 3118 3119 3115 3115 3113 3112 3111 3109
3113 3113 3115 3118 3118 3118 3118 3118 3117 3119 3120 3120 3119 3117 3117 3119 3115 3115 3116 3116 3116 3117 3118 3117 3118 3120 3119 3121 3118 3119 3119 3120 3119 3119 3117 3115 3116 3115 3116 3112 3112 3110 3108 3107 3106
3106 3108 3109 3110 3112 3113 3111 3112 3112 3113 3115 3115 3116 3113 3111 3110 3110 3112 3111 3112 3113 3114 3114 3113 3114 3115 3116 3116 3116 3116 3118 3117 3114 3115 3115 3114 3115 3113 3112 3110 3108 3106 3105 3103 3101
3100 3101 3103 3103 3106 3107 3105 3107 3106 3108 3109 3110 3111 3109 3108 3103 3106 3106 3108 3107 3108 3110 3110 3110 3111 3112 3112 3114 3116 3114 3112 3112 3114 3112 3113 3113 3111 3111 3110 3107 3105 3103 3102 3100 3097
3092 3096 3097 3096 3099 3099 3099 3100 3101 3103 3104 3106 3105 3107 3103 3102 3100 3101 3103 3103 3104 3106 3106 3106 3107 3109 3110 3113 3111 3108 3109 3110 3112 3113 3110 3108 3107 3107 3104 3103 3102 3100 3099 3098 3096
3081 3085 3090 3091 3093 3092 3095 3095 3100 3099 3097 3099 3098 3099 3096 3098 3098 3098 3099 3100 3100 3103 3107 3104 3106 3105 3107 3106 3106 3107 3108 3109 3108 3107 3104 3104 3102 3101 3099 3099 3099 3099 3096 3093 3090
3068 3073 3079 3081 3084 3085 3088 3088 3086 3086 3083 3088 3092 3090 3092 3092 3094 3094 3095 3099 3099 3100 3104 3105 3102 3101 3099 3101 3103 3105 3106 3105 3104 3103 3101 3099 3096 3096 3095 3095 3095 3094 3092 3088 3083
3058 3061 3066 3070 3075 3077 3079 3083 3079 3080 3079 3077 3081 3084 3086 3087 3090 3091 3091 3095 3096 3098 3101 3101 3099 3094 3097 3099 3100 3101 3102 3101 3101 3097 3096 3095 3088 3090 3091 3092 3091 3089 3086 3082 3071
3046 3051 3055 3059 3067 3067 3068 3073 3075 3079 3074 3067 3070 3072 3076 3076 3078 3086 3084 3093 3094 3095 3099 3098 3091 3093 3094 3097 3096 3097 3096 3095 3095 3095 3093 3093 3088 3085 3084 3087 3086 3084 3079 3069 3062
3035 3039 3042 3053 3052 3058 3061 3067 3070 3076 3070 3068 3065 3065 3068 3069 3071 3073 3079 3085 3088 3090 3094 3094 3089 3090 3093 3095 3091 3095 3092 3092 3093 3091 3089 3085 3087 3078 3079 3081 3081 3075 3068 3060 3054
3025 3028 3033 3036 3041 3046 3053 3059 3064 3067 3057 3054 3054 3062 3066 3064 3066 3067 3074 3080 3085 3087 3087 3089 3087 3089 3092 3087 3087 3088 3088 3089 3090 3088 3082 3075 3081 3075 3076 3078 3075 3067 3062 3055 3047
3015 3017 3022 3028 3033 3038 3046 3053 3054 3050 3048 3049 3048 3057 3061 3058 3067 3061 3066 3072 3074 3078 3081 3084 3083 3082 3082 3086 3084 3086 3088 3082 3080 3078 3072 3075 3077 3075 3073 3072 3068 3061 3056 3049 3042
3005 3008 3010 3016 3023 3028 3036 3044 3036 3034 3042 3040 3042 3054 3055 3057 3059 3060 3062 3067 3071 3069 3071 3077 3081 3077 3076 3081 3083 3084 3086 3080 3075 3067 3067 3071 3070 3068 3069 3068 3064 3057 3051 3043 3038
2995 2998 2999 3005 3013 3018 3026 3024 3023 3026 3034 3032 3046 3048 3051 3048 3049 3058 3057 3063 3064 3066 3068 3069 3072 3074 3072 3074 3079 3079 3082 3080 3078 3075 3073 3065 3066 3067 3065 3064 3060 3052 3046 3039 3033
2984 2987 2990 2997 3004 3011 3014 3011 3016 3023 3028 3030 3036 3038 3038 3037 3044 3051 3053 3053 3058 3060 3063 3065 3069 3068 3068 3072 3072 3075 3077 3078 3077 3072 3061 3055 3057 3058 3060 3057 3052 3048 3042 3036 3028
2975 2975 2980 2987 2997 3000 2997 3001 3007 3015 3018 3026 3027 3027 3033 3034 3038 3046 3043 3045 3051 3054 3057 3060 3063 3067 3066 3065 3068 3069 3071 3072 3072 3069 3064 3057 3055 3058 3058 3056 3051 3045 3039 3033 3025
2963 2966 2969 2976 2984 2983 2990 2994 3002 3005 3011 3016 3019 3021 3028 3031 3038 3043 3042 3041 3044 3048 3053 3055 3058 3061 3063 3058 3063 3065 3066 3067 3068 3064 3066 3065 3059 3057 3056 3052 3047 3043 3036 3030 3023
2950 2957 2959 2965 2970 2973 2980 2987 2993 2999 3003 3005 3011 3018 3022 3027 3034 3038 3041 3039 3039 3042 3047 3049 3052 3055 3062 3060 3056 3057 3061 3063 3064 3064 3063 3063 3056 3057 3052 3045 3044 3039 3033 3027 3020
2942 2944 2948 2948 2957 2964 2973 2976 2981 2989 2995 3000 3004 3012 3016 3022 3024 3026 3032 3033 3034 3041 3042 3045 3046 3049 3048 3044 3046 3049 3053 3059 3060 3058 3056 3054 3052 3054 3047 3043 3041 3036 3030 3026 3018
2920 2923 2929 2930 2937 2947 2959 2966 2973 2977 2985 2994 2999 3001 3007 3017 3019 3022 3027 3030 3034 3033 3039 3041 3041 3045 3047 3044 3043 3044 3048 3054 3054 3052 3054 3051 3050 3052 3044 3040 3037 3033 3028 3023 3016
2899 2906 2917 2925 2933 2940 2951 2956 2962 2970 2975 2981 2987 2993 2999 3007 3010 3015 3019 3021 3022 3028 3033 3037 3040 3042 3044 3043 3041 3041 3045 3049 3049 3049 3049 3050 3050 3044 3042 3037 3035 3031 3026 3021 3014
2872 2894 2914 2914 2922 2931 2932 2938 2947 2964 2969 2976 2983 2991 2996 3003 3009 3013 3019 3020 3020 3026 3028 3033 3038 3040 3040 3039 3040 3040 3037 3040 3042 3042 3044 3045 3045 3042 3039 3035 3030 3027 3023 3017 3012